CCD8913 ZBAA-ZYTL

Flight info

Callsign CCD8913
Flight time 0h 57m
Altitude 27600
Route MUGLO W34 ANRAT W575 INTIV
Aircraft B738/M-SDE2E3FGILRWXY/LB2

Departure

Time 2026-04-20 15:10
Airport Beijing Capital International Airport (ZBAA)

Arrival

Time 2026-04-20 16:07
Airport Dalian Zhoushuizi International Airport (ZYTL)
Time Latitude Longitude Altitude Speed Heading
2026-04-20 14:36 40.06118 116.60995 125 ft 0 kts 262°
2026-04-20 14:53 40.06119 116.61006 125 ft 2 kts 260°
2026-04-20 14:54 40.06121 116.61026 125 ft 2 kts 263°
2026-04-20 14:54 40.06123 116.61045 125 ft 2 kts 268°
2026-04-20 14:54 40.06121 116.61065 125 ft 2 kts 287°
2026-04-20 14:54 40.06116 116.61083 125 ft 2 kts 303°
2026-04-20 14:55 40.06106 116.61098 125 ft 2 kts 318°
2026-04-20 14:55 40.06094 116.61108 125 ft 2 kts 334°
2026-04-20 14:55 40.06080 116.61115 125 ft 1 kts 349°
2026-04-20 14:55 40.06074 116.61116 125 ft 1 kts 355°
2026-04-20 14:56 40.06072 116.61116 125 ft 0 kts 354°
2026-04-20 14:59 40.06073 116.61116 125 ft 0 kts 354°
2026-04-20 14:59 40.06082 116.61115 125 ft 3 kts 354°
2026-04-20 15:00 40.06117 116.61110 125 ft 4 kts 353°
2026-04-20 15:00 40.06141 116.61105 125 ft 2 kts 353°
2026-04-20 15:00 40.06168 116.61101 125 ft 4 kts 353°
2026-04-20 15:00 40.06206 116.61095 125 ft 5 kts 355°
2026-04-20 15:01 40.06253 116.61118 125 ft 8 kts 50°
2026-04-20 15:01 40.06263 116.61181 125 ft 8 kts 83°
2026-04-20 15:01 40.06272 116.61274 125 ft 11 kts 80°
2026-04-20 15:01 40.06334 116.61340 125 ft 14 kts 359°
2026-04-20 15:02 40.06443 116.61325 125 ft 17 kts 353°
2026-04-20 15:02 40.06573 116.61303 125 ft 20 kts 354°
2026-04-20 15:02 40.06720 116.61281 125 ft 22 kts 353°
2026-04-20 15:02 40.06875 116.61256 125 ft 23 kts 353°
2026-04-20 15:03 40.07038 116.61230 125 ft 24 kts 353°
2026-04-20 15:03 40.07200 116.61206 125 ft 22 kts 353°
2026-04-20 15:03 40.07363 116.61179 125 ft 22 kts 356°
2026-04-20 15:03 40.07521 116.61156 125 ft 23 kts 353°
2026-04-20 15:04 40.07690 116.61127 125 ft 24 kts 354°
2026-04-20 15:04 40.07869 116.61101 125 ft 25 kts 353°
2026-04-20 15:04 40.08048 116.61074 125 ft 26 kts 353°
2026-04-20 15:04 40.08234 116.61043 125 ft 26 kts 353°
2026-04-20 15:05 40.08422 116.61015 125 ft 27 kts 353°
2026-04-20 15:05 40.08610 116.60986 125 ft 27 kts 353°
2026-04-20 15:05 40.08801 116.60955 125 ft 27 kts 353°
2026-04-20 15:05 40.08964 116.60930 125 ft 20 kts 353°
2026-04-20 15:06 40.09089 116.60909 125 ft 15 kts 353°
2026-04-20 15:06 40.09152 116.60899 125 ft 7 kts 353°
2026-04-20 15:06 40.09229 116.60889 125 ft 12 kts
2026-04-20 15:06 40.09283 116.60950 125 ft 9 kts 78°
2026-04-20 15:07 40.09293 116.61051 125 ft 7 kts 83°
2026-04-20 15:07 40.09295 116.61066 125 ft 0 kts 83°
2026-04-20 15:07 40.09296 116.61086 125 ft 7 kts 85°
2026-04-20 15:08 40.09275 116.61186 125 ft 12 kts 124°
2026-04-20 15:08 40.09213 116.61240 125 ft 9 kts 163°
2026-04-20 15:08 40.09177 116.61248 125 ft 0 kts 174°
2026-04-20 15:09 40.09086 116.61261 125 ft 42 kts 174°
2026-04-20 15:10 40.08458 116.61360 126 ft 137 kts 173°
2026-04-20 15:10 40.07298 116.61542 465 ft 186 kts 174°
2026-04-20 15:10 40.06030 116.61737 1633 ft 186 kts 175°
2026-04-20 15:10 40.04795 116.62091 2445 ft 195 kts 155°
2026-04-20 15:11 40.03686 116.63291 2941 ft 222 kts 134°
2026-04-20 15:11 40.02482 116.64788 3060 ft 248 kts 140°
2026-04-20 15:11 40.01163 116.66229 3038 ft 250 kts 141°
2026-04-20 15:11 39.99777 116.67726 3372 ft 268 kts 141°
2026-04-20 15:12 39.98556 116.69441 4510 ft 262 kts 122°
2026-04-20 15:12 39.98022 116.71692 4963 ft 267 kts 91°
2026-04-20 15:12 39.98150 116.74171 5770 ft 274 kts 89°
2026-04-20 15:12 39.97740 116.76511 6795 ft 271 kts 119°
2026-04-20 15:13 39.96448 116.78218 7647 ft 273 kts 155°
2026-04-20 15:13 39.94676 116.78822 8804 ft 269 kts 175°
2026-04-20 15:13 39.92788 116.79264 9564 ft 287 kts 166°
2026-04-20 15:13 39.90937 116.80240 10622 ft 293 kts 155°
2026-04-20 15:14 39.89125 116.81587 11175 ft 316 kts 150°
2026-04-20 15:14 39.87196 116.83182 11706 ft 337 kts 149°
2026-04-20 15:14 39.85150 116.84909 12054 ft 362 kts 149°
2026-04-20 15:14 39.83027 116.86727 12541 ft 379 kts 149°
2026-04-20 15:15 39.80816 116.88636 13221 ft 389 kts 149°
2026-04-20 15:15 39.78530 116.90613 13941 ft 397 kts 149°
2026-04-20 15:15 39.76236 116.92597 14683 ft 403 kts 149°
2026-04-20 15:15 39.73903 116.94614 15386 ft 409 kts 150°
2026-04-20 15:16 39.71522 116.96670 16073 ft 416 kts 150°
2026-04-20 15:16 39.69085 116.98772 16735 ft 422 kts 150°
2026-04-20 15:16 39.66643 117.00877 17366 ft 428 kts 150°
2026-04-20 15:16 39.64152 117.03020 17973 ft 434 kts 150°
2026-04-20 15:17 39.61635 117.05185 18563 ft 440 kts 150°
2026-04-20 15:17 39.59061 117.07394 18798 ft 449 kts 150°
2026-04-20 15:17 39.56480 117.09611 18788 ft 446 kts 150°
2026-04-20 15:17 39.53895 117.11834 18793 ft 445 kts 150°
2026-04-20 15:18 39.51320 117.14044 19010 ft 452 kts 150°
2026-04-20 15:18 39.48695 117.16298 19888 ft 452 kts 150°
2026-04-20 15:18 39.46050 117.18526 20317 ft 461 kts 152°
2026-04-20 15:18 39.43335 117.20644 21069 ft 460 kts 154°
2026-04-20 15:19 39.40550 117.22765 21585 ft 467 kts 154°
2026-04-20 15:19 39.37753 117.24904 22159 ft 471 kts 155°
2026-04-20 15:19 39.34938 117.27065 22728 ft 475 kts 155°
2026-04-20 15:19 39.32107 117.29238 23074 ft 474 kts 155°
2026-04-20 15:20 39.29306 117.31389 23093 ft 476 kts 155°
2026-04-20 15:20 39.26418 117.33604 23093 ft 478 kts 155°
2026-04-20 15:20 39.23594 117.35773 23092 ft 479 kts 155°
2026-04-20 15:20 39.20732 117.37973 23087 ft 478 kts 155°
2026-04-20 15:21 39.17914 117.40249 22842 ft 481 kts 148°
2026-04-20 15:21 39.15443 117.43170 22688 ft 479 kts 137°
2026-04-20 15:21 39.13237 117.46389 22681 ft 483 kts 132°
2026-04-20 15:21 39.11394 117.50036 22664 ft 492 kts 117°
2026-04-20 15:22 39.10315 117.54256 22683 ft 496 kts 103°
2026-04-20 15:22 39.09688 117.58627 22680 ft 497 kts 97°
2026-04-20 15:22 39.09346 117.63036 22672 ft 497 kts 94°
2026-04-20 15:22 39.09100 117.67467 22672 ft 496 kts 94°
2026-04-20 15:23 39.08857 117.71882 22672 ft 497 kts 94°
2026-04-20 15:23 39.08606 117.76311 22673 ft 496 kts 94°
2026-04-20 15:23 39.08352 117.80744 22673 ft 496 kts 94°
2026-04-20 15:23 39.08102 117.85114 22673 ft 496 kts 94°
2026-04-20 15:24 39.07844 117.89576 22674 ft 497 kts 94°
2026-04-20 15:24 39.07588 117.94007 22673 ft 496 kts 94°
2026-04-20 15:24 39.07333 117.98394 22674 ft 497 kts 94°
2026-04-20 15:24 39.07051 118.02814 22673 ft 497 kts 96°
2026-04-20 15:25 39.06506 118.07201 22673 ft 496 kts 102°
2026-04-20 15:25 39.05800 118.11533 22676 ft 496 kts 103°
2026-04-20 15:25 39.05086 118.15869 22674 ft 496 kts 102°
2026-04-20 15:25 39.04388 118.20189 22674 ft 496 kts 102°
2026-04-20 15:26 39.03682 118.24582 22674 ft 496 kts 102°
2026-04-20 15:26 39.02989 118.28893 22674 ft 496 kts 102°
2026-04-20 15:26 39.02288 118.33252 22674 ft 496 kts 102°
2026-04-20 15:26 39.01598 118.37551 22674 ft 496 kts 102°
2026-04-20 15:27 39.00899 118.41901 22675 ft 495 kts 101°
2026-04-20 15:27 39.00203 118.46231 22674 ft 495 kts 101°
2026-04-20 15:27 38.99515 118.50501 22674 ft 495 kts 101°
2026-04-20 15:27 38.98811 118.54863 22674 ft 494 kts 101°
2026-04-20 15:28 38.98116 118.59162 22674 ft 494 kts 101°
2026-04-20 15:28 38.97421 118.63449 22675 ft 494 kts 101°
2026-04-20 15:28 38.96720 118.67776 22673 ft 493 kts 101°
2026-04-20 15:28 38.96017 118.72115 22674 ft 493 kts 101°
2026-04-20 15:29 38.95324 118.76379 22674 ft 492 kts 101°
2026-04-20 15:29 38.94627 118.80656 22674 ft 492 kts 101°
2026-04-20 15:29 38.93921 118.84974 22673 ft 492 kts 101°
2026-04-20 15:29 38.93214 118.89278 22674 ft 491 kts 101°
2026-04-20 15:30 38.92511 118.93547 22674 ft 491 kts 101°
2026-04-20 15:30 38.91807 118.97811 22674 ft 491 kts 101°
2026-04-20 15:30 38.91097 119.02091 22674 ft 490 kts 101°
2026-04-20 15:30 38.90385 119.06374 22674 ft 490 kts 101°
2026-04-20 15:31 38.89668 119.10664 22674 ft 490 kts 101°
2026-04-20 15:31 38.88953 119.14938 22674 ft 490 kts 100°
2026-04-20 15:31 38.88239 119.19190 22674 ft 490 kts 100°
2026-04-20 15:31 38.87525 119.23438 22674 ft 490 kts 100°
2026-04-20 15:32 38.86807 119.27702 22674 ft 490 kts 100°
2026-04-20 15:32 38.86088 119.31952 22673 ft 490 kts 100°
2026-04-20 15:32 38.85368 119.36205 22670 ft 489 kts 102°
2026-04-20 15:32 38.84667 119.40444 22615 ft 473 kts 101°
2026-04-20 15:33 38.84071 119.44480 22563 ft 450 kts 100°
2026-04-20 15:33 38.83494 119.48292 22602 ft 431 kts 101°
2026-04-20 15:33 38.82839 119.52042 22607 ft 435 kts 103°
2026-04-20 15:33 38.82136 119.55802 22604 ft 438 kts 103°
2026-04-20 15:34 38.81434 119.59641 22603 ft 441 kts 102°
2026-04-20 15:34 38.80752 119.63450 22599 ft 442 kts 102°
2026-04-20 15:34 38.80060 119.67345 22599 ft 442 kts 103°
2026-04-20 15:34 38.79386 119.71162 22649 ft 443 kts 103°
2026-04-20 15:35 38.78693 119.75033 22409 ft 452 kts 104°
2026-04-20 15:35 38.77660 119.78857 22168 ft 453 kts 114°
2026-04-20 15:35 38.76275 119.82438 21922 ft 451 kts 120°
2026-04-20 15:35 38.74455 119.85726 21665 ft 448 kts 132°
2026-04-20 15:36 38.72241 119.88473 21426 ft 447 kts 139°
2026-04-20 15:36 38.69904 119.91068 21174 ft 445 kts 139°
2026-04-20 15:36 38.67577 119.93709 20919 ft 444 kts 136°
2026-04-20 15:36 38.65507 119.96600 20719 ft 441 kts 129°
2026-04-20 15:37 38.63603 119.99620 20701 ft 440 kts 129°
2026-04-20 15:37 38.61678 120.02686 20700 ft 442 kts 129°
2026-04-20 15:37 38.59754 120.05749 20697 ft 442 kts 129°
2026-04-20 15:37 38.57832 120.08822 20699 ft 442 kts 128°
2026-04-20 15:38 38.55938 120.11921 20699 ft 442 kts 126°
2026-04-20 15:38 38.54252 120.15134 20695 ft 442 kts 119°
2026-04-20 15:38 38.53047 120.18738 20696 ft 442 kts 106°
2026-04-20 15:38 38.52335 120.22564 20712 ft 442 kts 102°
2026-04-20 15:39 38.51714 120.26376 20699 ft 442 kts 102°
2026-04-20 15:39 38.51076 120.30204 20698 ft 442 kts 102°
2026-04-20 15:39 38.50439 120.34048 20698 ft 442 kts 102°
2026-04-20 15:39 38.49806 120.37887 20700 ft 442 kts 102°
2026-04-20 15:40 38.49174 120.41715 20699 ft 442 kts 102°
2026-04-20 15:40 38.48539 120.45564 20699 ft 442 kts 102°
2026-04-20 15:40 38.47906 120.49393 20700 ft 442 kts 102°
2026-04-20 15:40 38.47278 120.53195 20699 ft 442 kts 101°
2026-04-20 15:41 38.46650 120.57062 20699 ft 442 kts 101°
2026-04-20 15:41 38.46036 120.60858 20700 ft 442 kts 101°
2026-04-20 15:41 38.45412 120.64705 20700 ft 442 kts 101°
2026-04-20 15:41 38.44789 120.68533 20700 ft 442 kts 102°
2026-04-20 15:42 38.44163 120.72369 20699 ft 442 kts 102°
2026-04-20 15:42 38.43538 120.76198 20699 ft 442 kts 102°
2026-04-20 15:42 38.42915 120.80005 20700 ft 442 kts 102°
2026-04-20 15:42 38.42284 120.83846 20700 ft 442 kts 102°
2026-04-20 15:43 38.41655 120.87671 20700 ft 442 kts 102°
2026-04-20 15:43 38.41044 120.91534 20698 ft 442 kts 99°
2026-04-20 15:43 38.40692 120.95394 20698 ft 442 kts 94°
2026-04-20 15:43 38.40700 120.99284 20698 ft 442 kts 85°
2026-04-20 15:44 38.41203 121.03148 20703 ft 442 kts 77°
2026-04-20 15:44 38.41974 121.06960 20703 ft 442 kts 75°
2026-04-20 15:44 38.42750 121.10718 20698 ft 442 kts 75°
2026-04-20 15:44 38.43526 121.14487 20699 ft 442 kts 75°
2026-04-20 15:45 38.44313 121.18298 20699 ft 442 kts 75°
2026-04-20 15:45 38.45097 121.22087 20700 ft 442 kts 75°
2026-04-20 15:45 38.45943 121.25829 20699 ft 442 kts 72°
2026-04-20 15:45 38.47010 121.29517 20581 ft 444 kts 65°
2026-04-20 15:46 38.48338 121.32980 19978 ft 432 kts 62°
2026-04-20 15:46 38.49710 121.36331 19219 ft 423 kts 62°
2026-04-20 15:46 38.51062 121.39651 18489 ft 427 kts 62°
2026-04-20 15:46 38.52417 121.42986 17769 ft 416 kts 62°
2026-04-20 15:47 38.53872 121.46110 16937 ft 414 kts 54°
2026-04-20 15:47 38.55776 121.48864 16143 ft 411 kts 39°
2026-04-20 15:47 38.58145 121.50694 15438 ft 400 kts 22°
2026-04-20 15:47 38.60797 121.51789 14722 ft 404 kts 13°
2026-04-20 15:48 38.63514 121.52355 14036 ft 394 kts
2026-04-20 15:48 38.66214 121.52735 13555 ft 388 kts
2026-04-20 15:48 38.68927 121.53136 13238 ft 395 kts
2026-04-20 15:48 38.71558 121.53531 13083 ft 375 kts
2026-04-20 15:49 38.74175 121.53924 12908 ft 390 kts
2026-04-20 15:49 38.76894 121.54331 12681 ft 383 kts
2026-04-20 15:49 38.79421 121.54711 12494 ft 361 kts
2026-04-20 15:49 38.81819 121.55290 12313 ft 347 kts 18°
2026-04-20 15:50 38.83960 121.56706 12127 ft 340 kts 38°
2026-04-20 15:50 38.85486 121.58907 11953 ft 322 kts 59°
2026-04-20 15:50 38.86347 121.61465 11707 ft 310 kts 75°
2026-04-20 15:50 38.86602 121.64115 11563 ft 295 kts 91°
2026-04-20 15:51 38.86427 121.66685 11414 ft 282 kts 97°
2026-04-20 15:51 38.86221 121.69141 11232 ft 272 kts 96°
2026-04-20 15:51 38.86037 121.71500 11078 ft 262 kts 96°
2026-04-20 15:51 38.85856 121.73810 10942 ft 258 kts 96°
2026-04-20 15:52 38.85677 121.76080 10770 ft 256 kts 96°
2026-04-20 15:52 38.85499 121.78330 10501 ft 252 kts 96°
2026-04-20 15:52 38.85322 121.80572 10221 ft 249 kts 96°
2026-04-20 15:53 38.84976 121.84931 9684 ft 242 kts 96°
2026-04-20 15:53 38.84809 121.87022 9438 ft 234 kts 96°
2026-04-20 15:53 38.84650 121.89065 9150 ft 224 kts 96°
2026-04-20 15:53 38.84502 121.91006 8907 ft 214 kts 96°
2026-04-20 15:54 38.84360 121.92873 8680 ft 205 kts 96°
2026-04-20 15:54 38.84225 121.94649 8487 ft 195 kts 95°
2026-04-20 15:54 38.84094 121.96356 8324 ft 192 kts 95°
2026-04-20 15:54 38.83963 121.98062 8119 ft 194 kts 95°
2026-04-20 15:55 38.83853 121.99503 7945 ft 194 kts 95°
2026-04-20 15:55 38.83722 122.01211 7742 ft 192 kts 95°
2026-04-20 15:55 38.83594 122.02867 7562 ft 181 kts 95°
2026-04-20 15:55 38.83638 122.04446 7383 ft 179 kts 70°
2026-04-20 15:56 38.84428 122.05625 7240 ft 179 kts 25°
2026-04-20 15:56 38.85654 122.05857 7081 ft 181 kts 359°
2026-04-20 15:56 38.86905 122.05972 6874 ft 179 kts
2026-04-20 15:56 38.88129 122.06151 6682 ft 179 kts
2026-04-20 15:57 38.89369 122.06317 6495 ft 178 kts
2026-04-20 15:57 38.90593 122.06480 6307 ft 178 kts
2026-04-20 15:57 38.91801 122.06305 6115 ft 174 kts 333°
2026-04-20 15:57 38.92546 122.05223 5961 ft 164 kts 287°
2026-04-20 15:58 38.92652 122.03754 5795 ft 167 kts 272°
2026-04-20 15:58 38.92766 122.02281 5596 ft 165 kts 276°
2026-04-20 15:58 38.92888 122.00823 5415 ft 164 kts 276°
2026-04-20 15:58 38.93006 121.99370 5235 ft 164 kts 276°
2026-04-20 15:59 38.93122 121.97913 5055 ft 164 kts 276°
2026-04-20 15:59 38.93238 121.96458 4875 ft 163 kts 276°
2026-04-20 15:59 38.93354 121.95006 4695 ft 163 kts 276°
2026-04-20 15:59 38.93469 121.93565 4517 ft 162 kts 276°
2026-04-20 16:00 38.93581 121.92143 4342 ft 161 kts 276°
2026-04-20 16:00 38.93481 121.90730 4189 ft 159 kts 245°
2026-04-20 16:00 38.92989 121.89451 4145 ft 161 kts 255°
2026-04-20 16:00 38.93079 121.88041 3922 ft 163 kts 285°
2026-04-20 16:01 38.93360 121.86671 3716 ft 158 kts 284°
2026-04-20 16:01 38.93620 121.85291 3598 ft 159 kts 283°
2026-04-20 16:01 38.93863 121.83910 3499 ft 159 kts 282°
2026-04-20 16:01 38.94096 121.82523 3437 ft 158 kts 283°
2026-04-20 16:02 38.94329 121.81134 3386 ft 158 kts 282°
2026-04-20 16:02 38.94566 121.79752 3303 ft 159 kts 282°
2026-04-20 16:02 38.94733 121.78358 3123 ft 157 kts 277°
2026-04-20 16:02 38.94811 121.76975 3002 ft 149 kts 271°
2026-04-20 16:03 38.94844 121.75697 2913 ft 142 kts 274°
2026-04-20 16:03 38.94926 121.74425 2897 ft 144 kts 275°
2026-04-20 16:03 38.95013 121.73153 2801 ft 143 kts 275°
2026-04-20 16:03 38.95090 121.71866 2701 ft 144 kts 275°
2026-04-20 16:04 38.95182 121.70589 2546 ft 144 kts 275°
2026-04-20 16:04 38.95273 121.69338 2334 ft 141 kts 275°
2026-04-20 16:04 38.95360 121.68089 2011 ft 137 kts 276°
2026-04-20 16:04 38.95454 121.66872 1820 ft 135 kts 275°
2026-04-20 16:05 38.95540 121.65669 1636 ft 135 kts 277°
2026-04-20 16:05 38.95672 121.64497 1531 ft 135 kts 279°
2026-04-20 16:05 38.95829 121.63305 1375 ft 135 kts 279°
2026-04-20 16:05 38.95952 121.62118 1191 ft 135 kts 276°
2026-04-20 16:06 38.96043 121.60916 990 ft 134 kts 275°
2026-04-20 16:06 38.96115 121.59719 800 ft 133 kts 274°
2026-04-20 16:06 38.96201 121.58546 611 ft 133 kts 277°
2026-04-20 16:06 38.96299 121.57366 420 ft 132 kts 276°
2026-04-20 16:07 38.96392 121.56188 248 ft 132 kts 276°
2026-04-20 16:07 38.96479 121.55029 118 ft 125 kts 276°
2026-04-20 16:07 38.96548 121.54102 116 ft 78 kts 276°
2026-04-20 16:07 38.96587 121.53590 115 ft 42 kts 275°
2026-04-20 16:08 38.96564 121.53310 115 ft 21 kts 254°
2026-04-20 16:08 38.96529 121.53191 115 ft 11 kts 244°
2026-04-20 16:08 38.96498 121.53110 115 ft 8 kts 230°
2026-04-20 16:08 38.96410 121.53114 115 ft 9 kts 149°
2026-04-20 16:09 38.96357 121.53141 115 ft 5 kts 176°
2026-04-20 16:09 38.96323 121.53141 115 ft 5 kts 183°
2026-04-20 16:09 38.96276 121.53138 115 ft 15 kts 183°
2026-04-20 16:09 38.96264 121.53137 115 ft 0 kts 183°